Content
SEND FEEDBACK

Daily
Averages
Monthly
Summary
Iran

SANANDAJ, IRAN


Home > Middle East > Iran
Elevation: 4505 feet     Latitude: 35 19N     Longitude: 047 00E

WEATHER
 
SELECT A DAY
Number of Records: 71,925;   Date Range: 5/5/00 - 7/23/14
 
SHARE

PRINT THIS DATA

[ ← Previous Day ]
WEATHER ALMANAC - JANUARY 31, 2013
[ Next Day → ]
[ °C ]   °F
Weather ElementAverageHighLow
Temperature36.2 °F50 °F (12:30 pm)32 °F (5:30 am)
Dewpoint31.2 °F33.8 °F (9:30 am)21.2 °F (12:30 pm)
Humidity84.5 %100 % (4:30 pm)32 % (12:30 pm)
Barometer29.77 in29.88 in (9:30 am)29.65 in (11:30 pm)
Wind Speed3.6 mph20.7 mph (1:30 pm)
Weather ElementAverage
Visibility3.4 mi
Wind DirectionE (93.5 °)

Weather ElementTotal
Precipitation---
Heating Degree Days24 (Base 65)
Averaged from 24 records on January 31, 2013
WEATHER CONDITIONS BREAKOUT
WIND DIRECTION BREAKOUT
WEATHER BY HOUR - JANUARY 31, 2013
[ °C ]   °F
Local TimeTemperatureDewpointHumidityBarometerVisibilityWind DirectionWind SpeedGust SpeedPrecipitationEventsConditions
5:30 AM32.0 °F30.2 °F93 %29.86 in6.2 miCalmPartly Cloudy
6:30 AM32.0 °F30.2 °F93 %29.86 in6.2 miCalmPartly Cloudy
7:30 AM35.6 °F32.0 °F87 %29.83 in6.2 miCalmPartly Cloudy
8:30 AM35.6 °F32.0 °F87 %29.86 in6.2 miCalmScattered Clouds
9:30 AM38.0 °F33.0 °F75 %29.88 in6.0 miNorth (10°)4.5 mphPartly Cloudy
9:30 AM37.4 °F33.8 °F87 %29.86 in6.2 miNorth (10°)4.6 mphScattered Clouds
10:30 AM42.8 °F32.0 °F66 %29.83 in6.2 miNNE (20°)2.3 mphScattered Clouds
11:30 AM46.4 °F28.4 °F50 %29.80 in6.2 miSouth (170°)2.3 mphMostly Cloudy
12:30 PM50.0 °F21.2 °F32 %29.74 in6.2 miSSE (150°)6.9 mphMostly Cloudy
1:30 PM44.6 °F28.4 °F53 %29.74 in6.2 miSouth (180°)20.7 mphMostly Cloudy
2:00 PM42.8 °F30.2 °F61 %29.74 in5.0 miSSW (200°)16.1 mphOvercast
2:30 PM39.2 °F33.8 °F81 %29.74 in3.7 miSSE (160°)6.9 mphRainLight Rain Showers
3:00 PM35.6 °F32.0 °F87 %29.74 in1.2 miSouth (190°)6.9 mphRainRain
3:30 PM34.0 °F32.0 °F89 %29.81 in1.0 miSSW (210°)2.2 mphSnowSnow
3:30 PM33.8 °F32.0 °F93 %29.74 in0.9 miSSW (210°)2.3 mphSnowSnow
4:30 PM32.0 °F32.0 °F100 %29.74 in1.1 miCalmSnowSnow
5:30 PM33.8 °F32.0 °F93 %29.71 in1.2 miCalmSnowLight Snow
6:30 PM32.0 °F32.0 °F100 %29.71 in1.2 miSouth (170°)2.3 mphSnowLight Snow
7:30 PM32.0 °F32.0 °F100 %29.71 in0.9 miSouth (170°)2.3 mphSnowSnow
8:30 PM32.0 °F32.0 °F100 %29.71 in0.9 miEast (90°)2.3 mphSnowLight Snow
9:30 PM32.0 °F32.0 °F100 %29.76 in1.0 miCalmSnowSnow
9:30 PM32.0 °F32.0 °F100 %29.68 in0.9 miCalmSnowSnow
10:30 PM32.0 °F32.0 °F100 %29.68 in0.9 miCalmSnowLight Snow
11:30 PM32.0 °F32.0 °F100 %29.65 in0.9 miSSW (210°)4.6 mphSnowLight Snow
Hourly data recorded from OICS, located miles away from Sanandaj, Iran







STORIES FROM OUR PARTNERS